Location: Perryvale
(54.4667°N, 113.3833°W)
Time: 23:19:58
(UTC+00:00)

SR - Pass Details

Date: 28 May 2024
Orbit: 580 x 858 km, 66.7° (Epoch: 13 June)

Event Time Altitude Azimuth Distance (km) Brightness Sun altitude
Rises 05:37:12 0° 311° (NW) 2,970 ? -10.2°
Reaches altitude 10° 05:40:02 10° 327° (NNW) 2,013 ? -10.4°
Maximum altitude 05:43:30 21° 18° (NNE) 1,370 ? -10.6°
Drops below altitude 10° 05:46:51 10° 69° (ENE) 1,929 ? -10.8°
Sets 05:49:30 0° 86° (E) 2,811 ? -10.9°
